This is the latest recevied weather packets stored in our database for station/object KT2UU-13. If no packets are shown the sender has not sent any weather packets the latest 10 day(s).
| Time | Temp. | Humidity | Pressure | Rain* | Wind** | Luminosity | Snow |
|---|---|---|---|---|---|---|---|
| 1778192514 | 19.44° C | 73% | 1014.6 hPa | 0 mm | - | - | - |
| 1778192210 | 19.44° C | 71% | 1014.6 hPa | 0 mm | - | - | - |
| 1778191906 | 18.89° C | 71% | 1014.3 hPa | 0 mm | - | - | - |
| 1778191604 | 19.44° C | 70% | 1014.6 hPa | 0 mm | - | - | - |
| 1778191302 | 19.44° C | 71% | 1014.8 hPa | 0 mm | - | - | - |
| 1778190997 | 19.44° C | 70% | 1014.8 hPa | 0 mm | - | - | - |
| 1778190695 | 19.44° C | 70% | 1014.7 hPa | 0 mm | - | - | - |
| 1778190392 | 20° C | 69% | 1014.4 hPa | 0 mm | - | - | - |
| 1778190089 | 19.44° C | 70% | 1014.6 hPa | 0 mm | - | - | - |
| 1778189785 | 20° C | 69% | 1014.7 hPa | 0 mm | - | - | - |
| 1778189482 | 20° C | 69% | 1014.4 hPa | 0 mm | - | - | - |
| 1778189178 | 20° C | 68% | 1014.3 hPa | 0 mm | - | - | - |
| 1778188875 | 20° C | 72% | 1014.3 hPa | 0 mm | - | - | - |
| 1778188572 | 20° C | 69% | 1014.2 hPa | 0 mm | - | - | - |
| 1778188267 | 19.44° C | 71% | 1014.1 hPa | 0 mm | - | - | - |
| 1778187965 | 19.44° C | 71% | 1014 hPa | 0 mm | - | - | - |
| 1778187662 | 20° C | 71% | 1014.1 hPa | 0 mm | - | - | - |
| 1778187358 | 20° C | 69% | 1014.2 hPa | 0 mm | - | - | - |
| 1778187055 | 20.56° C | 69% | 1014.1 hPa | 0 mm | - | - | - |
| 1778186751 | 20.56° C | 72% | 1014.1 hPa | 0 mm | - | - | - |
| 1778186449 | 20° C | 71% | 1014 hPa | 0 mm | - | - | - |
| 1778186146 | 19.44° C | 75% | 1013.8 hPa | 0 mm | - | - | - |
| 1778185844 | 19.44° C | 72% | 1013.8 hPa | 0 mm | - | - | - |
| 1778185539 | 19.44° C | 74% | 1013.7 hPa | 0 mm | - | - | - |
| 1778185236 | 19.44° C | 73% | 1013.8 hPa | 0 mm | - | - | - |
* Rain latest hour (hover to see other rain measurements)
** Current wind speed in m/s (hover to see current wind gust speed)